| time (UTC) | temp C | wind direction | speed KPH | gust KPH | rain 1hr cm | rain 24hr cm | rain mn cm | humidity % | barometer mb |
| 20260507085443 | 13 | 0.0 | 0.0 | 0.00 | 0.00 | 0.00 | 70 | 1005.1 | |
| 20260507084500 | 13 | 0.0 | 0.0 | 0.00 | 0.00 | 0.00 | 71 | 1005.2 | |
| 20260507083518 | 13 | 0.0 | 0.0 | 0.00 | 0.00 | 0.00 | 72 | 1005.1 | |
| 20260507082534 | 13 | 0.0 | 0.0 | 0.00 | 0.00 | 0.00 | 69 | 1004.7 | |
| 20260507081553 | 15 | 0.0 | 0.0 | 0.00 | 0.00 | 0.00 | 67 | 1004.4 | |
| 20260507080608 | 13 | 0.0 | 0.0 | 0.00 | 0.00 | 0.00 | 77 | 1005.1 | |
| 20260507075626 | 13 | 0.0 | 0.0 | 0.00 | 0.00 | 0.00 | 77 | 1004.5 | |
| 20260507074642 | 13 | 0.0 | 0.0 | 0.00 | 0.00 | 0.00 | 83 | 1004.6 | |
| 20260507073659 | 13 | 0.0 | 0.0 | 0.00 | 0.00 | 0.00 | 83 | 1004.6 | |
| 20260507072715 | 13 | 0.0 | 0.0 | 0.00 | 0.00 | 0.00 | 86 | 1004.5 | |
| 20260507071732 | 13 | 0.0 | 0.0 | 0.00 | 0.00 | 0.00 | 86 | 1004.3 | |
| 20260507070749 | 13 | 0.0 | 0.0 | 0.00 | 0.00 | 0.00 | 84 | 1004.2 | |
| 20260507065806 | 14 | 0.0 | 0.0 | 0.00 | 0.00 | 0.00 | 84 | 1004.2 | |
| 20260507064824 | 14 | 0.0 | 0.0 | 0.00 | 0.00 | 0.00 | 86 | 1004.2 | |
| 20260507063840 | 14 | 0.0 | 0.0 | 0.00 | 0.00 | 0.00 | 87 | 1003.9 | |
| 20260507062858 | 14 | 0.0 | 0.0 | 0.00 | 0.00 | 0.00 | 85 | 1004.0 | |
| 20260507061914 | 14 | 0.0 | 0.0 | 0.00 | 0.00 | 0.00 | 88 | 1003.7 | |
| 20260507060931 | 14 | 0.0 | 0.0 | 0.00 | 0.00 | 0.00 | 85 | 1003.5 | |
| 20260507055949 | 14 | 0.0 | 0.0 | 0.00 | 0.00 | 0.00 | 87 | 1003.8 | |
| 20260507055006 | 15 | 0.0 | 0.0 | 0.00 | 0.00 | 0.00 | 82 | 1003.5 | |
| 20260507054022 | 15 | 0.0 | 0.0 | 0.00 | 0.00 | 0.00 | 83 | 1003.5 | |
| 20260507053039 | 15 | 0.0 | 0.0 | 0.00 | 0.00 | 0.00 | 88 | 1003.7 | |
| 20260507052056 | 15 | 0.0 | 0.0 | 0.00 | 0.00 | 0.00 | 88 | 1003.7 | |
| 20260507051113 | 15 | 0.0 | 0.0 | 0.00 | 0.00 | 0.00 | 83 | 1003.4 | |
| 20260507050131 | 15 | 0.0 | 0.0 | 0.00 | 0.00 | 0.00 | 92 | 1003.6 | |
| 20260507045148 | 15 | 0.0 | 0.0 | 0.00 | 0.00 | 0.00 | 95 | 1003.3 | |
| 20260507044204 | 15 | 0.0 | 0.0 | 0.00 | 0.00 | 0.00 | 92 | 1003.1 | |
| 20260507043222 | 16 | 0.0 | 0.0 | 0.00 | 0.00 | 0.00 | 94 | 1003.2 | |
| 20260507042237 | 15 | 0.0 | 0.0 | 0.00 | 0.00 | 0.00 | 100 | 1003.4 | |
| 20260507041255 | 15 | 0.0 | 0.0 | 0.00 | 0.00 | 0.00 | 99 | 1003.2 | |
| 20260507040312 | 15 | 0.0 | 0.0 | 0.00 | 0.00 | 0.00 | 99 | 1002.9 | |
| 20260507035329 | 15 | 0.0 | 0.0 | 0.00 | 0.00 | 0.00 | 99 | 1002.7 | |
| 20260507034345 | 15 | 0.0 | 0.0 | 0.00 | 0.00 | 0.00 | 99 | 1002.5 | |
| 20260507033402 | 15 | 0.0 | 0.0 | 0.00 | 0.00 | 0.00 | 99 | 1002.6 | |
| 20260507032419 | 15 | 0.0 | 0.0 | 0.00 | 0.00 | 0.00 | 99 | 1002.5 | |
| 20260507031435 | 15 | 0.0 | 0.0 | 0.00 | 0.00 | 0.00 | 99 | 1002.5 | |
| 20260507030451 | 15 | 0.0 | 0.0 | 0.00 | 0.00 | 0.00 | 100 | 1002.6 | |
| 20260507025508 | 15 | 0.0 | 0.0 | 0.00 | 0.00 | 0.00 | 100 | 1002.6 | |
| 20260507024525 | 15 | 0.0 | 0.0 | 0.00 | 0.00 | 0.00 | 100 | 1002.7 | |
| 20260507023542 | 15 | 0.0 | 0.0 | 0.00 | 0.00 | 0.00 | 100 | 1002.8 | |
| 20260507022557 | 15 | 0.0 | 0.0 | 0.00 | 0.00 | 0.00 | 97 | 1002.9 | |
| 20260507021615 | 15 | 0.0 | 0.0 | 0.00 | 0.00 | 0.00 | 92 | 1003.1 | |
| 20260507020631 | 15 | 0.0 | 0.0 | 0.00 | 0.00 | 0.00 | 98 | 1003.1 | |
| 20260507015648 | 15 | 0.0 | 0.0 | 0.00 | 0.00 | 0.00 | 92 | 1003.1 | |
| 20260507014706 | 15 | 0.0 | 0.0 | 0.00 | 0.00 | 0.00 | 98 | 1003.4 | |
| 20260507013721 | 15 | 0.0 | 0.0 | 0.00 | 0.00 | 0.00 | 92 | 1003.5 | |
| 20260507012738 | 14 | 0.0 | 0.0 | 0.00 | 0.00 | 0.00 | 100 | 1003.5 | |
| 20260507011755 | 15 | 0.0 | 0.0 | 0.00 | 0.00 | 0.00 | 96 | 1003.7 | |
| 20260507010812 | 15 | 0.0 | 0.0 | 0.00 | 0.00 | 0.00 | 99 | 1003.6 | |
| 20260507005830 | 15 | 0.0 | 0.0 | 0.00 | 0.00 | 0.00 | 97 | 1003.7 | |
| 20260507003903 | 14 | 0.0 | 0.0 | 0.00 | 0.00 | 0.00 | 100 | 1003.7 | |
| 20260507002919 | 14 | 0.0 | 0.0 | 0.00 | 0.00 | 0.00 | 100 | 1003.8 | |
| 20260507001937 | 15 | 0.0 | 0.0 | 0.00 | 0.00 | 0.00 | 100 | 1003.8 | |
| 20260507000954 | 15 | 0.0 | 0.0 | 0.00 | 0.00 | 0.00 | 99 | 1003.8 | |
| 20260507000011 | 15 | 0.0 | 0.0 | 0.00 | 0.00 | 0.00 | 100 | 1003.8 | |
| 20260506235028 | 15 | 0.0 | 0.0 | 0.00 | 0.00 | 0.00 | 98 | 1003.8 | |
| 20260506234045 | 15 | 0.0 | 0.0 | 0.00 | 0.00 | 0.00 | 99 | 1003.8 | |
| 20260506233102 | 15 | 0.0 | 0.0 | 0.00 | 0.00 | 0.00 | 98 | 1003.8 | |
| 20260506232118 | 14 | 0.0 | 0.0 | 0.00 | 0.00 | 0.00 | 99 | 1003.8 | |
| 20260506231135 | 15 | 0.0 | 0.0 | 0.00 | 0.00 | 0.00 | 93 | 1004.0 | |
| 20260506230152 | 15 | 0.0 | 0.0 | 0.00 | 0.00 | 0.00 | 96 | 1004.1 | |
| 20260506225210 | 15 | 0.0 | 0.0 | 0.00 | 0.00 | 0.00 | 86 | 1004.2 | |
| 20260506224226 | 15 | 0.0 | 0.0 | 0.00 | 0.00 | 0.00 | 96 | 1004.3 | |
| 20260506223243 | 15 | 0.0 | 0.0 | 0.00 | 0.00 | 0.00 | 99 | 1004.4 | |
| 20260506222300 | 15 | 0.0 | 0.0 | 0.00 | 0.00 | 0.00 | 98 | 1004.5 | |
| 20260506221318 | 15 | 0.0 | 0.0 | 0.00 | 0.00 | 0.00 | 98 | 1004.5 | |
| 20260506220334 | 15 | 0.0 | 0.0 | 0.00 | 0.00 | 0.00 | 96 | 1004.6 | |
| 20260506215351 | 15 | 0.0 | 0.0 | 0.00 | 0.00 | 0.00 | 98 | 1004.5 | |
| 20260506214409 | 15 | 0.0 | 0.0 | 0.00 | 0.00 | 0.00 | 100 | 1004.5 | |
| 20260506213425 | 16 | 0.0 | 0.0 | 0.00 | 0.00 | 0.00 | 95 | 1004.6 | |
| 20260506212442 | 16 | 0.0 | 0.0 | 0.00 | 0.00 | 0.00 | 93 | 1004.7 | |
| 20260506211458 | 15 | 0.0 | 0.0 | 0.00 | 0.00 | 0.00 | 90 | 1004.8 | |
| 20260506210515 | 15 | 0.0 | 0.0 | 0.00 | 0.00 | 0.00 | 95 | 1004.9 | |
| 20260506205532 | 15 | 0.0 | 0.0 | 0.00 | 0.00 | 0.00 | 94 | 1005.0 | |
| 20260506204549 | 15 | 0.0 | 0.0 | 0.00 | 0.00 | 0.00 | 94 | 1004.8 | |
| 20260506203605 | 16 | 0.0 | 0.0 | 0.00 | 0.00 | 0.00 | 93 | 1005.0 | |
| 20260506202623 | 16 | 0.0 | 0.0 | 0.00 | 0.00 | 0.00 | 93 | 1004.9 | |
| 20260506201640 | 16 | 0.0 | 0.0 | 0.00 | 0.00 | 0.00 | 93 | 1004.7 | |
| 20260506200657 | 16 | 0.0 | 0.0 | 0.00 | 0.00 | 0.00 | 93 | 1005.0 | |
| 20260506195715 | 16 | 0.0 | 0.0 | 0.00 | 0.00 | 0.00 | 94 | 1005.2 | |
| 20260506194731 | 16 | 0.0 | 0.0 | 0.00 | 0.00 | 0.00 | 88 | 1005.3 | |
| 20260506193747 | 16 | 0.0 | 0.0 | 0.00 | 0.00 | 0.00 | 86 | 1005.6 | |
| 20260506192804 | 16 | 0.0 | 0.0 | 0.00 | 0.00 | 0.00 | 89 | 1005.4 | |
| 20260506191823 | 16 | 0.0 | 0.0 | 0.00 | 0.00 | 0.00 | 87 | 1005.4 | |
| 20260506190838 | 16 | 0.0 | 0.0 | 0.00 | 0.00 | 0.00 | 84 | 1005.6 | |
| 20260506185855 | 16 | 0.0 | 0.0 | 0.00 | 0.00 | 0.00 | 82 | 1005.5 | |
| 20260506184912 | 17 | 0.0 | 0.0 | 0.00 | 0.00 | 0.00 | 78 | 1005.3 | |
| 20260506183930 | 16 | 0.0 | 0.0 | 0.00 | 0.00 | 0.00 | 76 | 1005.3 | |
| 20260506182946 | 16 | 0.0 | 0.0 | 0.00 | 0.00 | 0.00 | 74 | 1005.3 | |
| 20260506182002 | 17 | 0.0 | 0.0 | 0.00 | 0.00 | 0.00 | 72 | 1005.4 | |
| 20260506181020 | 16 | 0.0 | 0.0 | 0.00 | 0.00 | 0.00 | 73 | 1005.5 | |
| 20260506180037 | 17 | 0.0 | 0.0 | 0.00 | 0.00 | 0.00 | 72 | 1005.5 | |
| 20260506175053 | 17 | 0.0 | 0.0 | 0.00 | 0.00 | 0.00 | 72 | 1005.5 | |
| 20260506174109 | 16 | 0.0 | 0.0 | 0.00 | 0.00 | 0.00 | 72 | 1005.7 | |
| 20260506173126 | 16 | 0.0 | 0.0 | 0.00 | 0.00 | 0.00 | 73 | 1005.9 | |
| 20260506172143 | 17 | 0.0 | 0.0 | 0.00 | 0.00 | 0.00 | 71 | 1006.0 | |
| 20260506171159 | 17 | 0.0 | 0.0 | 0.00 | 0.00 | 0.00 | 71 | 1006.1 | |
| 20260506170217 | 17 | 0.0 | 0.0 | 0.00 | 0.00 | 0.00 | 71 | 1006.3 | |
| 20260506165234 | 17 | 0.0 | 0.0 | 0.00 | 0.00 | 0.00 | 70 | 1006.4 | |
| 20260506164252 | 18 | 0.0 | 0.0 | 0.00 | 0.00 | 0.00 | 66 | 1006.6 | |
| 20260506163310 | 18 | 0.0 | 0.0 | 0.00 | 0.00 | 0.00 | 64 | 1006.7 | |
| 20260506162328 | 19 | 0.0 | 0.0 | 0.00 | 0.00 | 0.00 | 62 | 1006.9 | |
| 20260506161345 | 20 | 0.0 | 0.0 | 0.00 | 0.00 | 0.00 | 60 | 1007.1 | |
| 20260506160401 | 20 | 0.0 | 0.0 | 0.00 | 0.00 | 0.00 | 59 | 1007.2 | |
| 20260506155419 | 20 | 0.0 | 0.0 | 0.00 | 0.00 | 0.00 | 61 | 1007.4 | |
| 20260506154434 | 19 | 0.0 | 0.0 | 0.00 | 0.00 | 0.00 | 62 | 1007.5 | |
| 20260506153451 | 19 | 0.0 | 0.0 | 0.00 | 0.00 | 0.00 | 63 | 1007.5 | |
| 20260506152508 | 18 | 0.0 | 0.0 | 0.00 | 0.00 | 0.00 | 63 | 1007.7 | |
| 20260506151529 | 20 | 0.0 | 0.0 | 0.00 | 0.00 | 0.00 | 60 | 1007.5 | |
| 20260506150547 | 20 | 0.0 | 0.0 | 0.00 | 0.00 | 0.00 | 59 | 1007.5 | |
| 20260506145604 | 21 | 0.0 | 0.0 | 0.00 | 0.00 | 0.00 | 57 | 1007.4 | |
| 20260506144620 | 20 | 0.0 | 0.0 | 0.00 | 0.00 | 0.00 | 58 | 1007.2 | |
| 20260506143640 | 22 | 0.0 | 0.0 | 0.00 | 0.00 | 0.00 | 54 | 1007.0 | |
| 20260506142657 | 22 | 0.0 | 0.0 | 0.00 | 0.00 | 0.00 | 53 | 1007.0 | |
| 20260506141713 | 21 | 0.0 | 0.0 | 0.00 | 0.00 | 0.00 | 54 | 1007.3 | |
| 20260506140728 | 22 | 0.0 | 0.0 | 0.00 | 0.00 | 0.00 | 56 | 1007.6 | |
| 20260506135743 | 21 | 0.0 | 0.0 | 0.00 | 0.00 | 0.00 | 58 | 1007.8 | |
| 20260506134757 | 20 | 0.0 | 0.0 | 0.00 | 0.00 | 0.00 | 59 | 1007.6 | |
| 20260506133813 | 19 | 0.0 | 0.0 | 0.00 | 0.00 | 0.00 | 66 | 1007.7 | |
| 20260506132831 | 19 | 0.0 | 0.0 | 0.00 | 0.00 | 0.00 | 65 | 1007.5 | |
| 20260506131847 | 19 | 0.0 | 0.0 | 0.00 | 0.00 | 0.00 | 65 | 1007.4 | |
| 20260506130901 | 18 | 0.0 | 0.0 | 0.00 | 0.00 | 0.00 | 69 | 1007.6 | |
| 20260506125921 | 19 | 0.0 | 0.0 | 0.00 | 0.00 | 0.00 | 63 | 1007.5 | |
| 20260506124941 | 21 | 0.0 | 0.0 | 0.00 | 0.00 | 0.00 | 56 | 1007.5 | |
| 20260506123955 | 20 | 0.0 | 0.0 | 0.00 | 0.00 | 0.00 | 61 | 1007.5 | |
| 20260506123012 | 20 | 0.0 | 0.0 | 0.00 | 0.00 | 0.00 | 62 | 1007.5 | |
| 20260506122031 | 21 | 0.0 | 0.0 | 0.00 | 0.00 | 0.00 | 58 | 1007.8 | |
| 20260506121041 | 17 | 0.0 | 0.0 | 0.00 | 0.00 | 0.00 | 73 | 1007.8 | |
| 20260506120059 | 18 | 0.0 | 0.0 | 0.00 | 0.00 | 0.00 | 70 | 1007.7 | |
| 20260506115114 | 18 | 0.0 | 0.0 | 0.00 | 0.00 | 0.00 | 69 | 1008.0 | |
| 20260506114131 | 17 | 0.0 | 0.0 | 0.00 | 0.00 | 0.00 | 69 | 1008.1 | |
| 20260506113148 | 18 | 0.0 | 0.0 | 0.00 | 0.00 | 0.00 | 71 | 1008.2 | |
| 20260506112205 | 17 | 0.0 | 0.0 | 0.00 | 0.00 | 0.00 | 69 | 1008.0 | |
| 20260506111220 | 17 | 0.0 | 0.0 | 0.00 | 0.00 | 0.00 | 72 | 1008.4 | |
| 20260506110237 | 17 | 0.0 | 0.0 | 0.00 | 0.00 | 0.00 | 77 | 1008.2 | |
| 20260506105253 | 16 | 0.0 | 0.0 | 0.00 | 0.00 | 0.00 | 75 | 1008.2 | |
| 20260506104309 | 16 | 0.0 | 0.0 | 0.00 | 0.00 | 0.00 | 77 | 1008.2 | |
| 20260506103326 | 15 | 0.0 | 0.0 | 0.00 | 0.00 | 0.00 | 79 | 1007.9 | |
| 20260506102342 | 15 | 0.0 | 0.0 | 0.00 | 0.00 | 0.00 | 78 | 1007.8 | |
| 20260506101357 | 15 | 0.0 | 0.0 | 0.00 | 0.00 | 0.00 | 79 | 1008.0 | |
| 20260506100414 | 15 | 0.0 | 0.0 | 0.00 | 0.00 | 0.00 | 81 | 1007.7 | |
| 20260506095430 | 15 | 0.0 | 0.0 | 0.00 | 0.00 | 0.00 | 81 | 1007.9 | |
| 20260506094446 | 15 | 0.0 | 0.0 | 0.00 | 0.00 | 0.00 | 82 | 1007.7 | |
| 20260506093504 | 15 | 0.0 | 0.0 | 0.00 | 0.00 | 0.00 | 82 | 1007.7 | |
| 20260506092520 | 15 | 0.0 | 0.0 | 0.00 | 0.00 | 0.00 | 81 | 1007.7 | |
| 20260506091538 | 15 | 0.0 | 0.0 | 0.00 | 0.00 | 0.00 | 81 | 1007.6 | |
| 20260506090555 | 15 | 0.0 | 0.0 | 0.00 | 0.00 | 0.00 | 80 | 1007.6 |